TimeMDT,TemperatureF,Dew PointF,Humidity,Sea Level PressureIn,VisibilityMPH,Wind Direction,Wind SpeedMPH,Gust SpeedMPH,PrecipitationIn,Events,Conditions,WindDirDegrees,DateUTC
12:15 AM,42.8,33.8,70,29.92,10.0,SSE,3.5,-,N/A,,Partly Cloudy,150,2013-04-17 06:15:00
12:35 AM,42.8,35.6,76,29.92,10.0,SSW,5.8,-,N/A,,Clear,210,2013-04-17 06:35:00
12:55 AM,41.0,33.8,76,29.92,10.0,SW,4.6,-,N/A,,Clear,220,2013-04-17 06:55:00
1:15 AM,39.2,33.8,81,29.92,10.0,SE,4.6,-,N/A,,Clear,140,2013-04-17 07:15:00
1:35 AM,39.2,33.8,81,29.92,10.0,South,4.6,-,N/A,,Clear,170,2013-04-17 07:35:00
1:55 AM,41.0,30.2,65,29.92,10.0,South,4.6,-,N/A,,Clear,180,2013-04-17 07:55:00
2:15 AM,39.2,30.2,70,29.92,10.0,South,5.8,-,N/A,,Clear,180,2013-04-17 08:15:00
2:35 AM,39.2,30.2,70,29.92,10.0,SSE,6.9,-,N/A,,Clear,150,2013-04-17 08:35:00
2:55 AM,37.4,30.2,75,29.92,10.0,SSE,6.9,-,N/A,,Clear,160,2013-04-17 08:55:00
3:15 AM,37.4,30.2,75,29.92,10.0,SE,8.1,-,N/A,,Clear,140,2013-04-17 09:15:00
3:35 AM,37.4,30.2,75,29.92,10.0,SE,6.9,-,N/A,,Clear,140,2013-04-17 09:35:00
3:55 AM,37.4,28.4,70,29.93,10.0,SSE,9.2,-,N/A,,Clear,150,2013-04-17 09:55:00
4:15 AM,37.4,28.4,70,29.92,10.0,SE,8.1,-,N/A,,Clear,140,2013-04-17 10:15:00
4:35 AM,37.4,28.4,70,29.93,10.0,SSE,6.9,-,N/A,,Clear,160,2013-04-17 10:35:00
4:55 AM,37.4,28.4,70,29.93,10.0,South,5.8,-,N/A,,Clear,170,2013-04-17 10:55:00
5:15 AM,37.4,28.4,70,29.94,10.0,SE,4.6,-,N/A,,Clear,130,2013-04-17 11:15:00
5:35 AM,37.4,28.4,70,29.94,10.0,South,5.8,-,N/A,,Clear,180,2013-04-17 11:35:00
5:55 AM,37.4,28.4,70,29.94,10.0,SSE,6.9,-,N/A,,Clear,160,2013-04-17 11:55:00
6:15 AM,37.4,26.6,65,29.94,10.0,SSE,4.6,-,N/A,,Clear,160,2013-04-17 12:15:00
6:35 AM,35.6,26.6,70,29.95,10.0,SE,6.9,-,N/A,,Clear,140,2013-04-17 12:35:00
6:55 AM,37.4,26.6,65,29.95,10.0,SSE,4.6,-,N/A,,Clear,160,2013-04-17 12:55:00
7:15 AM,37.4,28.4,70,29.96,10.0,SSE,5.8,-,N/A,,Clear,160,2013-04-17 13:15:00
7:35 AM,37.4,28.4,70,29.98,10.0,SE,4.6,-,N/A,,Clear,140,2013-04-17 13:35:00
8:15 AM,39.2,30.2,70,29.99,10.0,SSE,8.1,-,N/A,,Clear,150,2013-04-17 14:15:00
8:35 AM,41.0,28.4,61,30.01,10.0,SSE,5.8,-,N/A,,Clear,150,2013-04-17 14:35:00
8:55 AM,42.8,30.2,61,30.01,10.0,SE,5.8,-,N/A,,Clear,140,2013-04-17 14:55:00
9:35 AM,42.8,28.4,57,30.03,10.0,South,5.8,-,N/A,,Clear,170,2013-04-17 15:35:00
9:55 AM,44.6,30.2,57,30.04,10.0,South,5.8,-,N/A,,Scattered Clouds,170,2013-04-17 15:55:00
10:15 AM,46.4,28.4,50,30.05,10.0,SSE,4.6,-,N/A,,Partly Cloudy,160,2013-04-17 16:15:00
10:35 AM,48.2,30.2,50,30.05,10.0,SE,5.8,-,N/A,,Partly Cloudy,130,2013-04-17 16:35:00
10:55 AM,48.2,28.4,46,30.05,10.0,ESE,6.9,-,N/A,,Scattered Clouds,110,2013-04-17 16:55:00
11:15 AM,48.2,24.8,40,30.06,10.0,NE,3.5,-,N/A,,Clear,40,2013-04-17 17:15:00
11:35 AM,48.2,26.6,43,30.07,10.0,SSE,5.8,-,N/A,,Clear,160,2013-04-17 17:35:00
11:55 AM,50.0,23.0,35,30.07,10.0,Calm,Calm,-,N/A,,Clear,0,2013-04-17 17:55:00
12:15 PM,51.8,21.2,30,30.07,10.0,South,3.5,-,N/A,,Clear,170,2013-04-17 18:15:00
12:35 PM,51.8,21.2,30,30.08,10.0,North,3.5,-,N/A,,Mostly Cloudy,360,2013-04-17 18:35:00
12:55 PM,51.8,21.2,30,30.08,10.0,East,10.4,-,N/A,,Overcast,100,2013-04-17 18:55:00
1:15 PM,51.8,21.2,30,30.08,10.0,SE,5.8,-,N/A,,Overcast,130,2013-04-17 19:15:00
1:35 PM,51.8,21.2,30,30.08,10.0,East,10.4,16.1,N/A,,Overcast,100,2013-04-17 19:35:00
1:55 PM,51.8,23.0,33,30.08,10.0,NE,15.0,26.5,N/A,,Overcast,40,2013-04-17 19:55:00
2:35 PM,53.6,21.2,28,30.09,10.0,ENE,15.0,21.9,N/A,,Overcast,60,2013-04-17 20:35:00
2:55 PM,53.6,21.2,28,30.09,10.0,East,12.7,19.6,N/A,,Mostly Cloudy,80,2013-04-17 20:55:00
3:15 PM,55.4,21.2,26,30.09,10.0,East,15.0,-,N/A,,Scattered Clouds,80,2013-04-17 21:15:00
3:35 PM,53.6,19.4,26,30.08,10.0,NNE,8.1,18.4,N/A,,Mostly Cloudy,30,2013-04-17 21:35:00
3:55 PM,53.6,19.4,26,30.08,10.0,NE,13.8,24.2,N/A,,Overcast,40,2013-04-17 21:55:00
4:15 PM,53.6,19.4,26,30.08,10.0,ENE,11.5,-,N/A,,Overcast,70,2013-04-17 22:15:00
4:35 PM,53.6,17.6,24,30.08,10.0,Calm,Calm,-,N/A,,Mostly Cloudy,0,2013-04-17 22:35:00
4:55 PM,55.4,19.4,25,30.09,10.0,NE,16.1,21.9,N/A,,Mostly Cloudy,50,2013-04-17 22:55:00
5:15 PM,55.4,19.4,25,30.09,10.0,NE,8.1,18.4,N/A,,Mostly Cloudy,40,2013-04-17 23:15:00
5:35 PM,55.4,17.6,23,30.10,10.0,NE,16.1,20.7,N/A,,Mostly Cloudy,40,2013-04-17 23:35:00
5:55 PM,57.2,17.6,21,30.10,10.0,NE,19.6,25.3,N/A,,Mostly Cloudy,50,2013-04-17 23:55:00
6:15 PM,55.4,17.6,23,30.10,10.0,NE,16.1,23.0,N/A,,Mostly Cloudy,50,2013-04-18 00:15:00
6:35 PM,55.4,17.6,23,30.11,10.0,NE,17.3,23.0,N/A,,Partly Cloudy,40,2013-04-18 00:35:00
6:55 PM,55.4,15.8,21,30.11,10.0,NE,16.1,20.7,N/A,,Clear,40,2013-04-18 00:55:00
7:15 PM,55.4,15.8,21,30.12,10.0,NNE,16.1,19.6,N/A,,Partly Cloudy,30,2013-04-18 01:15:00
7:35 PM,53.6,15.8,22,30.12,10.0,NE,18.4,21.9,N/A,,Partly Cloudy,40,2013-04-18 01:35:00
7:55 PM,53.6,15.8,22,30.13,10.0,NNE,13.8,-,N/A,,Clear,30,2013-04-18 01:55:00
8:15 PM,51.8,14.0,22,30.14,10.0,North,11.5,-,N/A,,Clear,10,2013-04-18 02:15:00
8:35 PM,50.0,14.0,24,30.15,10.0,NNE,6.9,-,N/A,,Clear,20,2013-04-18 02:35:00
8:55 PM,48.2,14.0,25,30.15,10.0,NNE,5.8,-,N/A,,Clear,20,2013-04-18 02:55:00
9:15 PM,48.2,15.8,27,30.16,10.0,NNW,5.8,-,N/A,,Clear,330,2013-04-18 03:15:00
9:35 PM,48.2,15.8,27,30.18,10.0,NNW,5.8,-,N/A,,Clear,330,2013-04-18 03:35:00
10:15 PM,48.2,19.4,32,30.20,10.0,NW,3.5,-,N/A,,Clear,320,2013-04-18 04:15:00
10:35 PM,48.2,17.6,30,30.21,10.0,NNW,3.5,-,N/A,,Clear,330,2013-04-18 04:35:00
10:55 PM,48.2,15.8,27,30.21,10.0,Calm,Calm,-,N/A,,Clear,0,2013-04-18 04:55:00
11:15 PM,46.4,17.6,32,30.21,10.0,ESE,3.5,-,N/A,,Clear,110,2013-04-18 05:15:00
11:35 PM,44.6,19.4,37,30.22,10.0,NNE,3.5,-,N/A,,Clear,20,2013-04-18 05:35:00
11:55 PM,44.6,21.2,39,30.23,10.0,SSW,3.5,-,N/A,,Clear,210,2013-04-18 05:55:00